Location: Berg
(47.2344°N, 9.5296°E)
Time: 23:57:45
(UTC+00:00)

AAUSAT CUBESAT 2 - Pass Details

Date: 06 December 2021
Orbit: 571 x 586 km, 97.5° (Epoch: 19 January)

Event Time Altitude Azimuth Distance (km) Brightness Sun altitude
Rises 05:35:47 0° 1° (N) 2,799 ? -12.6°
Reaches altitude 10° 05:38:14 10° 348° (NNW) 1,898 ? -12.2°
Maximum altitude 05:41:32 24° 294° (WNW) 1,222 ? -11.7°
Drops below altitude 10° 05:44:50 10° 240° (WSW) 1,894 ? -11.2°
Sets 05:47:17 0° 227° (SW) 2,791 ? -10.8°
